User: anonymous   Login
Location: NJAA Observatory
(40.6819°N, 74.8979°W)
Time: 07:07:53
(UTC-04:00)
Language:

Iridium 84 - Orbit

View from above orbital plane
View from above orbital plane
View from above satellite
View from above satellite

Ground track
Ground track

The orbit data is extracted from the following two-line orbital elements,

1 25530U 98066D   14304.89758814  .00000908  00000-0  31704-3 0  8495
2 25530 086.3994 031.0035 0002198 110.5085 249.6347 14.34216643839502
Epoch (UTC): 31 October 2014 21:32:31
Eccentricity: 0.0002198
inclination: 86.3994°
perigee height: 776 km
apogee height: 779 km
right ascension of ascending node: 31.0035°
argument of perigee: 110.5085°
revolutions per day: 14.34216643
mean anomaly at epoch: 249.6347°
orbit number at epoch: 83950

The dashed part of the orbit path shows where the satellite is in the earth's shadow,  

DLR